Weather History for St. Thomas, VI

Change the Weather History Date:

Wednesday, April 10, 2013

  Actual Average Record
Temperature  
Mean Temperature 80 °F 80 °F  
Max Temperature 86 °F 87 °F 94 °F (1995)
Min Temperature 75 °F 74 °F 62 °F (1982)
Degree Days  
Heating Degree Days 0 0  
Month to date heating degree days 0  
Since 1 July heating degree days 0  
Cooling Degree Days 16 15  
Month to date cooling degree days 150  
Year to date cooling degree days 1409  
Growing Degree Days 30 (Base 50)    
Moisture  
Dew Point 69 °F    
Average Humidity 70    
Maximum Humidity 85    
Minimum Humidity 57    
Precipitation  
Precipitation 0.00 in 0.09 in 0.87 in (1975)
Month to date precipitation 0.73  
Year to date precipitation 5.96  
Sea Level Pressure  
Sea Level Pressure 30.01 in    
Wind  
Wind Speed 10 mph (ESE)    
Max Wind Speed 17 mph    
Max Gust Speed 22 mph    
Visibility 10 miles    
Events      
T = Trace of Precipitation, MM = Missing Value Source: NWS Daily Summary

Daily Weather History Graph

Daily Weather History Graph

Search for Another Location

Airport:

Trip Planner

Search our weather history database for the weather conditions in past years. The results will help you decide how hot, cold, wet, or windy it might be!

Date:

Astronomy

Apr. 10, 2013 Rise Set
Actual Time 6:06 AM AST 6:35 PM AST
Civil Twilight 5:44 AM AST 6:57 PM AST
Nautical Twilight 5:18 AM AST 7:23 PM AST
Astronomical Twilight 4:52 AM AST 7:49 PM AST
Moon 6:04 AM AST (4/10) 6:58 PM AST (4/10)
Length of Visible Light 13h 13m
Length of Day
12h 28m
New Moon, 0% of the Moon is Illuminated
Apr 10
New Moon
Apr 18
First Quarter
Apr 25
Full
May 2
Last Quarter
May 9
New

Hourly Weather History & Observations

Time (AST) Temp. Heat Index Dew Point Humidity Pressure Visibility Wind Dir Wind Speed Gust Speed Precip Events Conditions
12:53 AM 78.1 °F - 71.1 °F 79% 30.01 in 10.0 mi East 8.1 mph - N/A   Clear
1:53 AM 75.9 °F - 71.1 °F 85% 29.99 in 10.0 mi East 5.8 mph - N/A   Clear
2:53 AM 77.0 °F - 71.1 °F 82% 29.97 in 10.0 mi East 6.9 mph - N/A   Clear
3:53 AM 75.9 °F - 70.0 °F 82% 29.97 in 10.0 mi East 6.9 mph - N/A   Scattered Clouds
4:53 AM 77.0 °F - 70.0 °F 79% 29.98 in 10.0 mi ESE 6.9 mph - N/A   Partly Cloudy
5:53 AM 75.9 °F - 70.0 °F 82% 30.00 in 10.0 mi East 6.9 mph - N/A   Clear
6:53 AM 78.1 °F - 69.1 °F 74% 30.01 in 10.0 mi ESE 11.5 mph - N/A   Clear
7:53 AM 81.0 °F 84.1 °F 69.1 °F 67% 30.03 in 10.0 mi ESE 16.1 mph - N/A   Clear
8:53 AM 82.9 °F 85.8 °F 68.0 °F 60% 30.05 in 10.0 mi ESE 16.1 mph - N/A   Clear
9:53 AM 84.9 °F 88.2 °F 68.0 °F 57% 30.05 in 10.0 mi East 16.1 mph - N/A   Scattered Clouds
10:53 AM 81.0 °F 84.4 °F 70.0 °F 69% 30.05 in 10.0 mi SE 15.0 mph 21.9 mph N/A   Mostly Cloudy
11:53 AM 81.0 °F 84.1 °F 69.1 °F 67% 30.04 in 10.0 mi SE 17.3 mph - N/A   Mostly Cloudy
12:53 PM 84.0 °F 87.0 °F 68.0 °F 58% 30.02 in 10.0 mi SSE 17.3 mph - N/A   Clear
1:53 PM 82.9 °F 87.5 °F 71.1 °F 67% 30.00 in 10.0 mi SE 17.3 mph - N/A   Mostly Cloudy
2:53 PM 82.0 °F 85.5 °F 69.1 °F 65% 29.98 in 10.0 mi SSE 17.3 mph - N/A   Mostly Cloudy
3:53 PM 82.0 °F 85.9 °F 70.0 °F 67% 29.97 in 10.0 mi SE 10.4 mph - N/A   Mostly Cloudy
5:53 PM 81.0 °F 83.3 °F 66.9 °F 62% 29.97 in 10.0 mi ENE 10.4 mph - N/A   Clear
6:53 PM 79.0 °F - 69.1 °F 72% 29.99 in 10.0 mi East 9.2 mph - N/A   Clear
7:53 PM 78.1 °F - 69.1 °F 74% 30.00 in 10.0 mi East 10.4 mph - N/A   Clear
8:53 PM 78.1 °F - 68.0 °F 71% 30.02 in 10.0 mi East 9.2 mph - N/A   Clear
9:53 PM 77.0 °F - 68.0 °F 74% 30.04 in 10.0 mi East 9.2 mph - N/A   Partly Cloudy
11:53 PM 77.0 °F - 68.0 °F 74% 30.01 in 10.0 mi East 9.2 mph - N/A   Clear